Theta_e
316 316 315 315 315 315 314 314 314 313 313 313 313 313 313 312 312 311 311 311 310 311 310 310 316 322 324 325 320 317 323 326 325 325 325 323 319 318 321 323 322 321
316 316 316 315 315 315 315 314 314 314 314 314 313 313 313 312 312 311 310 310 310 310 310 310 314 320 321 321 319 319 323 324 323 324 325 323 319 318 322 322 322 321
316 316 316 315 315 315 315 314 314 314 314 314 314 313 313 312 312 312 311 311 310 310 310 310 312 317 321 322 322 321 319 319 321 323 324 322 318 319 322 322 322 322
316 316 315 315 315 315 314 314 314 315 314 314 314 313 313 313 312 312 311 311 311 310 310 310 310 312 316 320 320 319 318 318 322 323 322 320 319 320 321 322 322 321
316 316 315 315 315 315 315 315 315 315 315 315 315 314 314 313 313 312 311 311 311 310 310 310 309 310 312 316 318 319 319 320 322 322 320 320 320 320 321 322 321 320
316 316 316 315 315 315 315 316 316 316 316 315 315 315 315 314 314 313 312 311 311 310 309 310 312 312 312 314 318 320 320 319 319 319 320 320 320 320 321 321 320 320
316 316 315 315 315 315 316 316 316 316 316 316 315 315 315 314 314 313 312 311 310 310 309 310 313 315 316 317 319 320 320 319 319 319 320 320 319 319 319 319 319 320
316 316 315 315 316 316 317 317 316 317 316 316 316 315 315 314 313 313 312 311 310 310 309 309 312 315 317 317 318 319 319 319 319 320 320 318 318 319 319 319 319 319
316 316 315 316 317 316 317 316 316 317 316 316 316 315 315 314 313 312 311 311 310 310 309 308 310 313 315 316 317 318 318 317 318 319 319 318 318 319 318 318 318 318
316 316 316 317 317 317 317 316 317 316 316 316 316 315 315 314 313 312 311 311 310 310 309 307 307 309 313 314 315 316 316 316 317 318 318 317 317 317 317 317 317 317
316 316 316 317 317 317 316 316 317 316 316 316 315 315 315 314 313 312 311 311 310 310 309 307 306 308 312 313 313 315 317 317 317 317 317 317 316 315 316 317 317 316
316 316 316 317 316 316 317 316 316 316 316 315 315 315 314 314 313 312 311 311 310 309 309 308 307 308 311 313 313 315 316 317 317 317 317 316 315 314 315 316 316 315
316 316 316 316 316 316 316 316 316 316 316 315 315 314 314 314 314 313 312 311 310 310 309 308 308 308 309 311 312 313 315 316 316 316 316 315 315 315 315 316 315 314
315 316 316 316 316 316 316 316 316 315 315 315 314 314 313 314 313 313 313 311 311 310 309 308 308 308 308 309 310 311 314 314 315 315 315 315 315 315 315 315 314 314
315 315 316 316 316 316 315 316 315 315 315 314 314 314 313 313 312 312 312 312 311 310 309 308 308 307 307 309 310 311 312 313 313 314 314 315 315 315 315 314 313 313
315 315 315 315 315 315 315 315 314 314 314 313 313 313 312 312 312 311 312 311 311 310 309 308 307 306 307 308 309 310 310 311 311 312 313 313 313 313 314 313 313 312
315 315 315 315 314 314 314 314 314 313 313 313 313 312 312 312 311 311 311 311 310 310 309 308 307 306 306 307 309 310 310 310 310 310 311 311 312 312 312 312 312 311
315 315 315 315 314 314 314 314 313 313 312 312 312 312 312 311 310 310 310 310 310 309 308 308 307 305 305 307 308 309 308 307 308 309 309 310 310 311 311 311 311 309
315 314 315 315 314 314 314 313 313 313 313 312 312 312 311 310 310 310 309 309 309 308 308 307 306 305 305 307 307 307 307 307 307 308 309 309 310 310 310 310 309 307
314 314 314 314 314 314 314 313 313 313 313 312 311 311 310 310 309 309 309 308 308 307 307 306 305 305 305 306 306 306 306 307 307 307 308 309 309 310 309 308 307 306
313 313 313 313 313 313 313 313 312 312 312 311 311 310 310 309 309 308 308 308 307 307 306 305 305 304 304 305 305 305 306 306 307 308 308 309 309 308 307 306 304 303
313 312 312 312 312 312 312 312 312 311 311 311 310 310 309 308 308 307 307 307 306 306 305 305 304 304 303 304 305 305 306 307 307 308 308 308 308 307 306 304 302 299
312 312 312 312 311 311 312 311 311 311 310 310 310 309 308 308 307 307 306 306 305 305 304 304 303 304 304 305 306 307 307 307 307 308 307 307 306 305 304 302 299 297
313 312 313 312 312 312 311 311 311 310 310 309 309 308 308 307 306 305 305 304 304 304 303 303 303 303 304 305 306 306 307 307 307 306 306 305 304 302 301 298 297 296
312 312 312 312 312 312 311 311 310 310 309 309 308 307 307 306 305 304 304 304 304 303 303 302 302 303 304 305 305 305 306 306 305 304 304 303 302 299 297 295 294 294
312 312 312 312 312 311 311 310 310 309 309 308 307 307 306 305 304 304 303 303 303 303 302 302 302 302 303 304 304 305 305 305 304 303 303 302 300 297 295 293 292 292
Wind_Speed
19 20 20 20 21 22 23 24 25 26 27 28 29 29 30 30 30 30 31 32 34 35 38 40 42 44 47 45 39 42 48 49 49 46 40 35 36 42 45 47 51 52
18 18 19 19 19 19 20 21 21 22 23 23 24 25 26 27 28 28 29 29 31 32 33 38 44 45 47 47 43 43 46 47 48 46 39 36 40 46 48 48 48 45
18 18 17 17 16 16 17 17 19 19 19 20 21 22 24 25 26 27 28 28 29 31 31 35 42 47 48 47 43 43 44 47 48 45 41 43 46 49 49 45 41 39
16 16 16 16 15 15 15 16 16 16 17 18 19 21 22 24 25 26 27 28 28 29 30 32 38 44 48 47 46 45 45 47 48 46 47 51 51 51 49 42 37 36
16 16 16 16 15 15 15 15 14 15 16 17 18 20 22 23 24 25 26 27 27 27 29 31 33 38 44 47 47 46 45 46 47 47 50 52 50 49 47 39 35 34
17 17 17 16 16 15 15 14 14 15 16 17 18 20 22 23 24 26 27 27 27 27 27 27 27 30 35 40 43 44 42 41 42 44 47 47 45 47 45 38 35 34
18 18 18 17 16 16 15 14 15 16 17 18 20 21 22 23 25 27 28 27 26 27 27 26 25 26 29 33 37 39 38 38 39 41 43 43 42 42 41 37 35 35
20 19 19 18 17 17 16 15 17 18 19 20 22 23 24 24 25 27 28 28 27 27 27 28 28 28 29 32 35 37 37 38 39 39 40 41 39 38 38 38 37 37
22 21 19 19 18 17 17 18 19 20 21 23 24 25 26 27 27 27 27 28 28 27 27 29 30 31 32 33 34 35 35 37 38 38 37 38 38 37 37 38 39 39
24 22 21 21 20 20 19 20 21 23 24 25 26 27 28 28 28 28 28 28 29 29 28 29 30 31 32 34 34 34 34 36 37 37 35 34 34 33 34 36 38 39
26 24 24 24 23 22 22 22 23 25 26 27 27 28 29 30 30 29 29 29 29 29 29 29 29 30 31 34 35 35 34 35 36 37 36 35 34 33 33 35 36 37
30 28 27 26 25 24 23 23 25 27 28 29 29 29 30 31 32 32 31 29 29 28 29 29 29 30 32 33 34 34 33 33 34 35 35 35 35 34 34 34 34 34
34 33 31 30 28 26 25 25 27 29 30 31 31 31 31 32 33 33 32 31 29 29 29 29 29 30 31 32 33 34 34 32 32 32 33 34 35 35 34 34 32 32
30 33 35 35 33 31 30 29 29 30 31 32 33 33 33 33 33 33 33 32 31 30 29 29 30 31 32 32 33 34 34 33 33 32 32 33 34 34 34 33 32 32
25 28 31 35 36 36 35 35 34 33 33 33 34 35 34 33 33 33 34 34 33 31 30 30 31 32 32 32 33 34 35 34 33 32 32 33 33 32 33 33 33 32
26 28 30 33 36 38 39 39 39 38 37 35 35 35 35 34 34 34 35 35 34 33 32 32 32 32 32 32 32 33 34 34 34 33 32 31 30 30 31 32 33 32
29 30 32 33 36 38 40 40 40 39 38 37 36 36 36 35 35 35 35 35 34 33 32 32 32 32 31 31 32 32 32 33 33 33 33 33 31 31 32 32 32 31
29 30 32 32 33 35 36 38 38 39 39 38 37 36 36 36 36 35 35 35 35 34 33 32 32 30 29 30 31 32 33 33 33 33 34 34 34 34 34 34 33 31
29 30 31 31 31 31 33 35 37 39 39 39 38 37 36 37 36 35 35 35 35 34 33 32 30 28 28 30 32 33 33 34 34 34 33 33 33 34 34 33 31 29
29 30 31 31 31 32 34 36 37 39 40 40 39 38 38 37 36 35 35 35 34 34 33 31 29 28 28 30 32 32 33 33 34 33 32 32 33 32 31 30 29 27
29 31 32 32 32 33 35 36 38 39 40 39 39 39 38 37 36 35 34 33 33 32 32 31 29 28 29 31 32 32 32 32 32 32 33 34 33 31 29 27 26 25
29 30 31 32 33 34 35 36 37 38 38 39 39 39 38 37 35 34 33 32 32 32 32 30 27 26 27 29 30 31 31 32 33 34 34 34 32 29 27 25 24 24
28 29 30 32 33 34 36 36 36 36 37 37 37 37 37 36 34 33 31 31 31 31 31 29 26 25 26 28 30 30 31 33 34 34 34 33 30 28 26 25 25 25
28 29 30 31 32 33 34 34 34 35 35 34 35 35 35 33 32 30 30 29 30 30 29 28 26 26 28 29 29 29 30 31 33 33 33 31 29 28 26 26 26 24
30 29 29 29 30 30 31 32 33 33 33 33 33 33 32 31 30 29 29 29 29 29 28 27 26 27 28 29 28 29 29 30 31 32 32 30 30 28 27 27 26 25
31 31 30 30 30 30 30 31 32 32 32 33 33 32 32 31 30 29 29 28 28 29 29 28 27 28 29 29 30 31 31 30 30 30 30 30 30 29 29 29 28 27
Wind_Direction
258 256 256 256 256 258 259 260 261 262 264 264 265 265 265 265 264 263 260 258 257 257 254 246 239 239 239 240 249 251 249 248 244 242 250 260 264 265 262 261 262 258
251 250 250 251 252 254 257 260 262 264 266 268 269 269 268 268 266 263 260 256 253 253 251 243 237 236 239 242 247 248 246 248 247 246 252 262 264 262 262 263 263 257
244 244 246 248 251 255 258 260 262 263 266 269 270 271 270 270 269 267 262 258 253 250 249 243 237 234 238 240 240 242 244 248 250 249 255 263 261 258 260 261 258 253
239 242 245 247 250 252 253 256 260 264 269 272 273 273 273 271 270 268 265 261 257 253 250 247 240 235 235 237 239 242 243 246 249 250 255 260 259 258 258 254 251 250
236 239 241 244 246 248 251 256 263 268 271 274 276 275 274 274 272 269 267 265 262 259 254 250 244 237 233 234 238 242 243 245 248 249 252 256 257 257 255 248 247 251
232 236 238 241 245 247 252 259 266 270 272 274 276 275 275 275 275 273 270 266 263 262 257 250 245 238 233 232 236 241 245 247 248 247 252 256 256 255 250 244 246 252
233 236 239 243 246 249 255 262 267 270 273 274 275 275 275 275 275 274 272 267 262 259 254 245 238 235 234 234 236 240 244 246 246 249 255 257 254 251 247 245 250 253
238 239 241 244 247 251 256 262 266 269 271 273 274 276 276 275 273 272 271 268 262 258 251 243 236 233 234 237 239 241 241 241 245 252 256 255 251 248 247 249 252 254
242 240 241 243 246 251 255 260 263 266 268 270 272 274 275 274 273 271 270 268 263 257 251 244 238 234 235 239 242 243 242 242 245 251 254 253 251 250 251 253 255 255
245 242 241 241 243 247 252 257 262 264 266 267 269 272 273 274 274 271 269 267 263 259 253 245 240 236 237 241 242 243 245 244 245 249 250 249 249 252 254 257 259 257
252 247 244 242 243 246 251 256 261 263 265 267 268 270 272 273 273 272 271 268 265 261 255 249 242 237 239 242 241 242 245 244 243 245 246 247 249 252 255 257 258 256
261 258 253 249 247 247 251 257 261 264 266 267 269 270 271 273 273 273 273 271 268 263 257 251 244 238 240 243 242 242 245 245 242 241 242 246 250 252 252 254 254 252
267 266 264 261 257 253 254 257 261 263 266 267 268 269 270 271 273 274 275 274 272 266 259 253 246 240 241 243 242 243 246 247 245 243 244 246 249 249 250 250 250 250
275 271 269 267 265 262 259 258 260 262 264 266 268 268 269 271 273 275 276 275 273 269 262 254 247 241 240 242 244 245 248 249 249 249 249 249 248 247 248 249 249 250
278 275 270 267 265 264 262 261 261 262 263 266 268 270 270 271 272 273 274 274 273 270 264 256 248 243 239 241 245 247 249 251 251 250 251 249 246 246 247 248 248 249
277 274 271 267 263 262 261 261 262 263 265 267 270 272 272 271 270 271 272 273 272 269 265 259 252 245 240 240 245 248 249 250 251 251 250 249 248 248 250 249 248 248
282 279 278 274 269 264 263 264 267 267 268 269 272 273 273 271 269 269 269 270 270 268 265 261 255 248 241 241 244 246 247 249 250 249 249 250 251 253 254 253 251 248
284 283 282 281 277 272 270 272 273 273 272 272 273 275 274 271 270 269 269 268 268 267 264 261 255 248 241 240 243 246 249 251 250 250 249 250 253 255 255 253 249 245
283 281 280 280 279 277 275 275 275 275 275 275 275 275 272 270 269 268 266 265 265 265 264 262 256 247 240 240 244 247 249 250 249 249 249 250 252 253 252 249 244 239
284 281 279 278 278 276 275 274 274 275 276 275 275 273 270 269 269 267 265 264 263 263 263 261 256 248 241 241 244 246 248 249 249 247 246 248 249 249 247 244 241 236
287 283 282 282 280 278 276 275 274 275 275 276 275 274 273 272 270 267 264 262 261 260 259 259 254 247 242 241 244 246 247 248 247 244 243 243 243 242 240 239 236 230
289 285 283 282 281 280 278 276 276 276 276 277 277 275 274 271 268 266 263 261 259 256 256 257 254 247 242 242 244 246 245 244 243 241 240 240 238 236 233 231 226 218
288 285 282 280 278 278 277 276 277 277 277 277 276 275 273 271 269 267 264 261 257 254 254 255 251 245 242 243 244 246 244 242 241 239 237 236 233 230 227 222 214 209
291 288 284 281 279 278 277 277 277 277 277 276 275 274 272 270 269 266 263 259 254 252 253 253 248 244 243 243 243 245 245 242 239 238 236 233 228 225 221 214 206 203
297 293 289 285 283 281 280 279 277 276 275 273 272 271 269 267 265 261 259 256 251 250 251 251 248 244 243 243 244 246 247 243 237 235 234 231 227 222 213 205 201 197
296 295 292 289 287 285 282 279 276 274 272 270 269 268 266 264 261 259 257 253 248 246 248 249 248 244 243 243 242 243 244 241 238 237 235 232 227 217 206 200 197 192